STARLINK-32876, 63151

Orbit data source: Space-Track

STARLINK-32876, 63151 is a payload satellite owned by SpaceX/Seattle (US) in LEO that was launched on Mon, 03 Mar 2025 UTC via an FALCON 9 launch vehicle from the Air Force Eastern Test Range (AFETR). Payload-class satellites include a variety of spacecraft equipped with specific instruments for various scientific and technological missions. These include communications satellites like Starlink; space stations such as the ISS; scientific satellites like the Hubble; Earth observation satellites from companies like Planet Labs, Umbra, and HawkEye 360; GPS; miniature CubeSats for education and research; and military/defense satellites.

Loading next visibility...
Identifier
63151, 2025-043V
Orbit
LEO
Last TLE update
12 hours ago
Origin
Manufacturer
SpaceX/Seattle
Mission
Operational Commercial Communications
Bus & Motor
STARLINK V2M, Unknown motor
Mass
730 kg wet, ~700 kg dry
Launch date (UTC)
2025-03-03 (2 months ago)
Launch vehicle
FALCON 9
Launch site
Air Force Eastern Test Range (AFETR)
Object type
Payload
Rocket body
Debris
Shape & HBR
Box + 2 Pan, 29 m
Radar Cross Section
33.884 m², Large (>1 m²)

Expand to show TLE details & history

TLE from 12 hours ago
0 STARLINK-32876
1 63151U 25043V   25128.77095110  .00000736  00000-0  24891-4 0  9992
2 63151  43.0033 302.1703 0001734 294.7993  65.2684 15.40699855 11314
Epoch: 2025-05-08T18:30Z
Definitive object data (Epoch: 2025-05-08T18:30:10.175Z)
Latitude
0.00006°
Longitude
157.7913°
Altitude
443.322 km
Speed
7.648 km/s
True Right ascension
20h 08m 40s
True Declination
0° 00' 00"
Sunlit
Object was in daylight at TLE epoch
Visualization TLE readout
Latitude
-35.79811°
Longitude
104.60012°
Altitude
453.175 km
Speed
7.642 km/s
Apparent Right ascension
20h 43m 50s
Apparent Declination
-72° 59' 53"
Sunlit
Object is in full shadow
Visualization observer readout
Local Sidereal Time
14:50:38
Azimuth
158.422° S
Elevation
-37.37°
Doppler factor
1
Orbital elements
Apogee altitude
447.182 km
Perigee altitude
444.815 km
Semi-major axis
6,824.135 km
Eccentricity
0.0001734
Inclination
43.0033°
RAAN
302.1703°
Arg. of periapsis
294.7993°
True anomaly
65.28645°
Mean anomaly
65.2684°
Eccentric anomaly
65.27742°
Mean motion
3.8501 °/min
BSTAR
0.000024891
Orbital period
93.5 mins
Loading maneuver chart data...
Loading SW <> Apogee altitude chart data...
Loading historical data...
Loading historical data...
Loading historical data...
Loading historical data...
Loading historical data...
Loading historical data...
Loading historical data...

STARLINK-32876 Visibility forecast

Observer location: undefined°, undefined°

Span
Click to sort rows by Start time (UTC) header in descending order
Start Az.
Max El. time (UTC)
Max El. Az.
Max El.
End time (UTC)
End Az.
6 mins2025-05-09 14:56:46.102Z221.434° SW2025-05-09 14:59:46.102Z135.616° SSE33.766°2025-05-09 15:02:46.102Z80.284° E
5 mins2025-05-09 16:35:46.102Z277.928° WNW2025-05-09 16:37:46.102Z15.583° NNE39.953°2025-05-09 16:40:46.102Z69.996° E
5 mins2025-05-09 18:13:46.102Z296.538° NW2025-05-09 18:15:46.102Z3.937° NNE38.883°2025-05-09 18:18:46.102Z84.076° E
5 mins2025-05-09 19:51:46.102Z277.822° WNW2025-05-09 19:53:46.102Z218.787° SW39.938°2025-05-09 19:56:46.102Z127.187° SE
|